#timestamp,LO_Frequency,Hit,StdDev 
1596749275.3,286047029.7,P
1596749295.1,286047028.5,P
1596749315.8,286047028.9,P
1596749335.7,286047031.3,Y
1596749355.5,286047000.2,P
1596749375.4,286047002.5,N
1596749395.2,286047002.3,N
1596749415.0,286047001.6,N
1596749415.9,286047001.6,N
1596749435.8,286047001.4,N
1596749455.6,286047004.4,N
1596749475.4,286047004.2,N
1596749495.3,286047001.5,N
1596749515.1,286047004.2,N
1596749535.9,286047002.9,N
1596749555.7,286047005.3,N
1596749575.5,286047003.3,N
1596749595.4,286047005.5,N
1596749615.2,286047005.4,N
1596749635.0,286047004.5,N
1596749636.0,286047004.5,N
1596749655.8,286047005.2,N
1596749675.6,286047005.5,N
1596749695.5,286047005.2,N
1596749715.3,286047006.9,N
1596749735.1,286047006.7,N
1596749755.9,286047006.7,N
1596749775.7,286047006.1,N
1596749795.5,286047006.9,N
1596749815.4,286047006.6,N
1596749835.2,286047009.0,N
1596749855.1,286047010.7,N
1596749856.0,286047010.7,N
1596749875.8,286047008.3,N
1596749895.6,286047007.7,N
1596749915.5,286047007.8,Y
1596749935.3,286047003.5,P
1596749955.2,286047007.6,P
1596749975.9,286047005.4,P
1596749995.7,286047005.4,Y
1596750015.6,286047000.8,P
1596750035.4,286047000.2,N
1596750055.2,286047000.0,N
1596750075.1,286047000.3,N
1596750076.0,286047000.3,N
1596750095.8,286046999.7,N
1596750115.7,286047000.0,N
1596750135.5,286046999.7,N
1596750155.3,286047002.7,N
1596750175.2,286047002.2,N
1596750195.9,286047002.6,N
1596750215.7,286047002.6,N
1596750235.6,286047001.8,N
1596750255.4,286047004.1,N
1596750275.3,286047003.7,N
1596750295.1,286047003.9,N
1596750296.0,286047003.9,N
1596750315.8,286047002.9,N
1596750335.7,286047003.0,N
1596750355.5,286047003.4,N
1596750375.3,286047005.3,Y
1596750395.2,286047001.3,P
1596750415.0,286047004.1,P
1596750415.9,286047004.1,P
1596750435.8,286047003.9,Y
1596750455.6,286047000.9,P
1596750475.4,286046999.7,N
1596750495.3,286047002.4,N
1596750515.1,286047000.0,N
1596750535.8,286047001.9,N
1596750555.7,286047001.5,N
1596750575.5,286047001.7,N
1596750595.4,286047001.7,N
1596750615.2,286047001.7,N
1596750635.0,286047003.8,Y
1596750635.9,286047003.8,P
1596750655.8,286047002.6,N
1596750675.6,286047001.8,N
1596750695.5,286047004.4,Y
1596750715.3,286047002.6,P
1596750735.1,286047002.0,P
1596750755.9,286047001.8,P
1596750775.7,286047001.8,Y
1596750795.5,286047002.7,P
1596750815.4,286047002.8,P
1596750835.2,286047002.8,P
1596750855.1,286047002.3,Y
1596750856.0,286047002.3,P
1596750875.8,286047000.7,P
1596750895.6,286047000.0,N
1596750915.5,286046998.1,N
1596750935.3,286047000.5,N
1596750955.2,286047000.8,N
1596750975.9,286047000.5,N
1596750995.7,286046999.8,N
1596751015.6,286047001.6,N
1596751035.4,286047001.5,N
1596751055.2,286047001.4,N
1596751075.1,286047003.7,Y
1596751076.0,286047003.7,P
1596751095.8,286047001.5,N
1596751115.7,286047002.3,N
1596751135.5,286047002.6,N
1596751155.3,286047001.8,N
1596751175.2,286047002.2,N
1596751195.0,286047004.4,Y
1596751195.9,286047004.4,P
